{"data":{"norad_id":69076,"epoch":"2026-09-20T03:47:09.110112Z","epoch_age_seconds":66863,"freshness":"FRESH","line1":"1 69076U 26104D   26263.15774433  .00000065  00000+0  82744-4 0  9993","line2":"2 69076  88.9905 331.8130 0002514  96.8659 263.2778 13.51021799 17969","mean_motion":13.51021799,"eccentricity":0.0002514,"inclination_deg":88.9905,"raan_deg":331.813,"arg_perigee_deg":96.8659,"mean_anomaly_deg":263.2778,"bstar":8.2744e-5,"rev_number":1796,"period_min":106.58599299181,"perigee_km":1066.6293972783,"apogee_km":1070.3735671072,"semimajor_km":7446.6384821927,"source":"CELESTRAK","updated_at":"2026-09-20T09:00:24.642410Z"}}